Torna al catalogo

SCOUT B DEB

LostPO
NORAD 29278·DEBRIS·🇺🇸 United States

Lanciato Aug 8, 1968 da Vandenberg Space Force Base

Loading…

Prossimi Passaggi (prossime 24 ore)

TLE

ObsoletoSource: Space-Track

Epoca: Jun 18, 2026, 20:50 UTC

1 29278U 68066M   26169.86833442  .00005098  00000-0  28819-2 0  9998
2 29278  80.5772  34.0810 0673872  87.8972 279.9118 13.32188831539663

Traccia SCOUT B DEB in tempo reale con AllMySat

Download on the App Store